[[{"header":{"parameterUnit":"m.s-1","parameterCategory":1,"la1":30.2991,"la2":30.254,"lo1":-89.0895,"lo2":-89.0444,"dy":0.0017,"dx":0.0017,"nx":28,"ny":28,"refTime":"2025-03-14T09:00:00:Z","depth":0,"parameterNumber":2,"parameterNumberName":"U-component_of_WINDS"},"data":[0,0,0,0,0,0,0,0,0,0,0,0,0,0,0,0,0,0,0,0,0,0,0,0,0,0,0,0,0,0,0,0,0,0,0,0,0,0,0,0,0,0,0,0,0,0,0,0,0,0,0,0,0,0,0,0,0,0,-2.7765,-2.7766,0,-2.783,-2.7831,-2.7831,-2.7839,-2.7839,-2.7838,-2.7838,-2.7906,-2.7908,-2.7911,0,0,0,0,0,0,0,0,0,0,0,0,0,-2.7651,-2.7653,-2.7765,-2.7766,-2.7767,-2.783,-2.7831,-2.7831,-2.7839,-2.7839,-2.7838,-2.7837,-2.7905,-2.7908,-2.7911,0,0,0,0,0,0,0,0,0,0,0,0,0,-2.7707,-2.7654,-2.7765,-2.7778,-2.778,-2.7829,-2.7831,-2.7832,-2.784,-2.7839,-2.7838,-2.7837,-2.7904,-2.7908,-2.7911,-2.7953,0,0,-2.7922,-2.7924,0,0,0,0,0,0,0,0,-2.7703,-2.7711,-2.7776,-2.7778,-2.778,-2.7825,-2.7815,-2.7872,-2.784,-2.7817,-2.7837,-2.7836,-2.788,-2.7886,-2.79,-2.7956,-2.7959,-2.7923,-2.7925,-2.7926,-2.7927,0,0,0,0,0,0,0,-2.77,-2.7708,-2.7791,-2.7777,-2.7779,-2.7782,-2.7789,-2.7826,-2.7853,-2.7819,-2.782,-2.7827,-2.7881,-2.7896,-2.7902,-2.796,-2.7923,-2.7926,-2.7928,-2.7929,-2.8052,-2.8053,0,0,0,0,0,0,-2.7693,-2.7705,-2.7789,-2.7793,-2.7738,-2.7785,-2.7792,-2.7812,-2.7853,-2.7858,-2.7828,-2.7827,-2.7891,-2.7897,-2.7904,-2.7954,-2.7926,-2.793,-2.7932,-2.8051,-2.8052,-2.8053,0,0,0,0,0,0,-2.769,-2.77,-2.7786,-2.7749,-2.776,-2.7788,-2.7809,-2.7814,-2.7829,-2.7859,-2.7865,-2.7838,-2.789,-2.7899,-2.794,-2.7956,-2.7931,-2.7935,-2.805,-2.8051,-2.8053,-2.8054,0,0,0,0,0,0,-2.7687,-2.7699,-2.7715,-2.7749,-2.7762,-2.782,-2.781,-2.7816,-2.7835,-2.7835,-2.7871,-2.7876,-2.789,-2.7935,-2.7944,-2.7961,-2.7938,-2.8048,-2.805,-2.8052,-2.8053,-2.8056,-2.8058,0,0,0,0,0,-2.7683,-2.7713,-2.7716,-2.7726,-2.7782,-2.7821,-2.7829,-2.7844,-2.7836,-2.7852,-2.7872,-2.7875,-2.7954,-2.7939,-2.7949,-2.7968,-2.8047,-2.805,-2.8052,-2.8052,-2.8055,-2.8058,0,0,0,0,0,0,-2.7681,-2.7718,-2.7721,-2.7763,-2.7789,-2.7823,-2.7843,-2.7847,-2.7876,-2.7875,-2.7894,-2.7902,-2.7942,-2.7959,-2.7942,-2.8009,-2.8,-2.8004,-2.7996,-2.8,-2.8002,-2.7996,-2.7941,0,0,0,0,0,-2.7685,-2.7714,-2.7745,-2.7779,-2.7792,-2.7815,-2.7833,-2.7843,-2.787,-2.7881,-2.7904,-2.7932,-2.7962,-2.7982,-2.8013,-2.8056,-2.8064,-2.8074,-2.8077,-2.8079,-2.8082,-2.8105,-2.811,-2.8061,-2.8061,-2.8061,0,0,-2.7695,-2.7719,-2.7736,-2.778,-2.7801,-2.783,-2.7824,-2.7856,-2.7878,-2.7887,-2.7926,-2.7944,-2.7976,-2.8018,-2.8038,-2.8034,-2.8097,-2.8082,-2.8083,-2.8085,-2.8108,-2.8113,-2.8117,-2.8063,-2.8063,-2.8062,0,0,-2.7726,-2.7748,-2.7778,-2.7799,-2.783,-2.7846,-2.7853,-2.7886,-2.7898,-2.7938,-2.7945,-2.7972,-2.8025,-2.8047,-2.8065,-2.8105,-2.8109,-2.8115,-2.8128,-2.8151,-2.8154,-2.8158,-2.8171,-2.8175,-2.8118,-2.8118,-2.8118,0,-2.7734,-2.7777,-2.7793,-2.7824,-2.7843,-2.7852,-2.7882,-2.7902,-2.7943,-2.7956,-2.7951,-2.8017,-2.8039,-2.8086,-2.8096,-2.8111,-2.8119,-2.811,-2.8153,-2.8156,-2.816,-2.8172,-2.8177,-2.8119,-2.8119,-2.8119,-2.8119,0,-2.7785,-2.7815,-2.7836,-2.7873,-2.7895,-2.7925,-2.7946,-2.7966,-2.7974,-2.799,-2.803,-2.8058,-2.8093,-2.8105,-2.8114,-2.8153,-2.815,-2.8149,-2.8139,-2.8164,-2.8176,-2.8181,-2.8119,-2.8119,-2.8119,-2.8119,0,0,-2.7816,-2.7861,-2.7868,-2.7885,-2.792,-2.7944,-2.7976,-2.8009,-2.8025,-2.8054,-2.808,-2.8125,-2.8123,-2.8144,-2.8156,-2.8176,-2.8204,-2.8172,-2.8173,-2.8176,-2.8248,-2.8247,-2.8253,-2.8208,-2.8209,-2.8209,-2.8245,0,-2.785,-2.7904,-2.7919,-2.7966,-2.7993,-2.8002,-2.803,-2.8055,-2.8071,-2.8097,-2.8116,-2.8146,-2.8143,-2.8156,-2.8176,-2.8196,-2.8219,-2.8194,-2.8232,-2.8233,-2.8221,-2.8259,-2.8258,-2.829,-2.825,-2.8251,-2.8251,0,-2.7897,-2.7924,-2.7972,-2.8004,-2.8016,-2.804,-2.8071,-2.8097,-2.8126,-2.8136,-2.8159,-2.8168,-2.8202,-2.8192,-2.8238,-2.8221,-2.8238,-2.825,-2.8252,-2.8255,-2.8242,-2.8261,-2.8301,-2.8305,-2.8259,-2.8259,-2.8258,0,-2.7912,-2.7961,-2.7996,-2.801,-2.8048,-2.8065,-2.8081,-2.8109,-2.8128,-2.8157,-2.8169,-2.8202,-2.8219,-2.8245,-2.8263,-2.8254,-2.8307,-2.8299,-2.8316,-2.8316,-2.8326,-2.8324,-2.8367,-2.8339,-2.8339,-2.8339,-2.8339,0,-2.7947,-2.7976,-2.8003,-2.8024,-2.8057,-2.8075,-2.8107,-2.8125,-2.815,-2.8175,-2.8186,-2.821,-2.8233,-2.8261,-2.8276,-2.8311,-2.8319,-2.8328,-2.8332,-2.8326,-2.8325,-2.8336,-2.8334,-2.8341,-2.834,-2.834,-2.834,0,-2.7969,-2.7988,-2.8027,-2.8059,-2.8068,-2.8091,-2.8119,-2.8141,-2.8157,-2.8189,-2.8198,-2.8224,-2.8257,-2.8278,-2.832,-2.833,-2.8368,-2.8372,-2.8358,-2.8359,-2.8374,-2.8372,-2.8424,-2.8432,-2.8401,-2.8401,-2.8401,0,-2.7989,-2.8011,-2.8046,-2.8063,-2.808,-2.8108,-2.8127,-2.8146,-2.8165,-2.82,-2.8217,-2.825,-2.8277,-2.8329,-2.8352,-2.8384,-2.8388,-2.8404,-2.8393,-2.8386,-2.8386,-2.8384,-2.8386,-2.8405,-2.8406,-2.8406,-2.8406,0,-2.8022,-2.8031,-2.8057,-2.8087,-2.811,-2.8135,-2.816,-2.8174,-2.8197,-2.8219,-2.8251,-2.8272,-2.8315,-2.8347,-2.8381,-2.84,-2.8407,-2.841,-2.8415,-2.8409,-2.8399,-2.8403,-2.8361,-2.8408,-2.8408,-2.8408,-2.8407,-2.8407,-2.8043,-2.8063,-2.809,-2.8119,-2.814,-2.8163,-2.8184,-2.8203,-2.823,-2.8265,-2.8275,-2.8309,-2.8338,-2.8384,-2.8403,-2.8431,-2.8429,-2.8437,-2.8439,-2.844,-2.8439,-2.8396,-2.8437,-2.8437,-2.8437,-2.8437,-2.8437,0,-2.8075,-2.8093,-2.812,-2.8154,-2.8177,-2.8181,-2.8209,-2.8228,-2.8258,-2.8284,-2.831,-2.8347,-2.8379,-2.8405,-2.8438,-2.8455,-2.8459,-2.8462,-2.8461,-2.8464,-2.844,-2.8431,-2.8459,-2.8459,-2.8459,-2.8458,-2.8458,-2.8458,-2.8095,-2.8128,-2.814,-2.8183,-2.8201,-2.8233,-2.8249,-2.827,-2.8291,-2.8332,-2.8357,-2.8374,-2.84,-2.8435,-2.8464,-2.8471,-2.8482,-2.8485,-2.8493,-2.8469,-2.8466,-2.8464,-2.8456,-2.8488,-2.8488,-2.8515,-2.8515,-2.8515]},{"header":{"parameterUnit":"m.s-1","parameterCategory":1,"la1":30.2991,"la2":30.254,"lo1":-89.0895,"lo2":-89.0444,"dy":0.0017,"dx":0.0017,"nx":28,"ny":28,"refTime":"2025-03-14T09:00:00:Z","depth":0,"parameterNumber":3,"parameterNumberName":"V-component_of_WINDS"},"data":[0,0,0,0,0,0,0,0,0,0,0,0,0,0,0,0,0,0,0,0,0,0,0,0,0,0,0,0,0,0,0,0,0,0,0,0,0,0,0,0,0,0,0,0,0,0,0,0,0,0,0,0,0,0,0,0,0,0,3.9786,3.9787,0,3.9906,3.9907,3.9908,3.9957,3.9957,3.9957,3.9956,4.008,4.0083,4.0086,0,0,0,0,0,0,0,0,0,0,0,0,0,3.96,3.9603,3.9785,3.9787,3.9788,3.9905,3.9907,3.9909,3.9957,3.9957,3.9957,3.9956,4.0078,4.0083,4.0087,0,0,0,0,0,0,0,0,0,0,0,0,0,3.9697,3.9604,3.9785,3.9827,3.9832,3.9905,3.9907,3.9909,3.9957,3.9957,3.9957,3.9956,4.0077,4.0082,4.0087,4.0128,0,0,4.0104,4.0106,0,0,0,0,0,0,0,0,3.9691,3.9703,3.9819,3.9824,3.983,3.9916,3.9887,3.9983,3.9957,3.991,3.9956,3.9956,4.0025,4.0035,4.0058,4.0134,4.0139,4.0104,4.0107,4.011,4.0111,0,0,0,0,0,0,0,3.9684,3.9698,3.9833,3.9821,3.9827,3.984,3.9853,3.9905,3.9968,3.9914,3.9918,3.9931,4.0028,4.0053,4.0062,4.0141,4.0104,4.0109,4.0112,4.0114,4.026,4.026,0,0,0,0,0,0,3.9671,3.9693,3.9829,3.9837,3.9758,3.9844,3.9859,3.9889,3.9968,3.998,3.9931,3.9933,4.0044,4.0055,4.0066,4.0122,4.0109,4.0114,4.0117,4.0259,4.026,4.0261,0,0,0,0,0,0,3.9666,3.9682,3.9824,3.9766,3.9785,3.9847,3.9881,3.9891,3.9916,3.9981,3.9993,3.9945,4.0044,4.0059,4.0113,4.0126,4.0117,4.0122,4.0258,4.0259,4.026,4.0231,0,0,0,0,0,0,3.9661,3.968,3.9696,3.9766,3.9788,3.9869,3.9882,3.9894,3.9925,3.9929,3.9997,4.0008,4.0045,4.0105,4.0118,4.0134,4.0126,4.0257,4.0259,4.026,4.0231,4.0231,4.0231,0,0,0,0,0,3.9654,3.9682,3.9696,3.9713,3.9808,3.9869,3.9882,3.9924,3.9926,3.9943,3.9985,4.0006,4.0123,4.011,4.0126,4.0143,4.0257,4.0258,4.026,4.0231,4.0231,4.0231,0,0,0,0,0,0,3.9612,3.9692,3.9709,3.976,3.9808,3.9877,3.99,3.9922,3.9969,3.9971,4.0021,4.0036,4.0087,4.012,4.0105,4.0188,4.0191,4.0196,4.0164,4.0165,4.0165,4.0156,4.013,0,0,0,0,0,3.9609,3.9651,3.9719,3.9758,3.9781,3.9836,3.9864,3.9893,3.9944,3.9964,4.001,4.0059,4.0107,4.0138,4.0185,4.0236,4.0253,4.0256,4.0255,4.0255,4.0259,4.0291,4.0294,4.0266,4.0266,4.0266,0,0,3.9602,3.9651,3.9675,3.9751,3.9791,3.9835,3.9852,3.9897,3.9931,3.9971,4.0026,4.0061,4.012,4.0173,4.0199,4.0202,4.027,4.0257,4.0256,4.026,4.0293,4.0296,4.0298,4.0267,4.0267,4.0266,0,0,3.9613,3.9654,3.9692,3.9732,3.9793,3.983,3.9839,3.9906,3.9932,3.9988,4.002,4.006,4.0141,4.0182,4.0214,4.0243,4.0265,4.0257,4.0257,4.0287,4.029,4.0292,4.0305,4.0308,4.026,4.026,4.026,0,3.9597,3.9664,3.9709,3.9753,3.9786,3.9825,3.9865,3.9902,3.9975,3.9998,4.0001,4.0105,4.0147,4.0212,4.022,4.0243,4.0257,4.025,4.0286,4.0288,4.0291,4.0304,4.0308,4.0259,4.0259,4.0259,4.026,0,3.9643,3.9689,3.9713,3.9784,3.982,3.9861,3.9913,3.9944,3.997,4.0007,4.0065,4.0117,4.0177,4.0195,4.0219,4.0264,4.0265,4.0276,4.0281,4.0292,4.0305,4.031,4.0257,4.0258,4.0258,4.0259,0,0,3.963,3.9726,3.9734,3.9768,3.9839,3.9876,3.9921,3.998,4.0007,4.0057,4.0096,4.0165,4.0177,4.0213,4.0243,4.027,4.0293,4.0278,4.0281,4.0281,4.0348,4.0341,4.0345,4.0308,4.0309,4.031,4.0344,0,3.9652,3.9733,3.9775,3.9839,3.9883,3.9922,3.9961,4.001,4.0046,4.009,4.013,4.0179,4.019,4.0212,4.024,4.0284,4.0308,4.0282,4.0347,4.0349,4.0332,4.0352,4.0343,4.0373,4.0349,4.035,4.0351,0,3.9687,3.9738,3.9806,3.9875,3.9895,3.9929,3.9989,4.003,4.0086,4.0111,4.0152,4.0183,4.0233,4.0233,4.0304,4.0286,4.0315,4.0341,4.0343,4.0352,4.0351,4.0363,4.0383,4.0388,4.0359,4.0358,4.0357,0,3.9673,3.9758,3.9811,3.9838,3.9919,3.9943,3.9978,4.0034,4.0068,4.012,4.0143,4.02,4.0231,4.0275,4.0321,4.0316,4.0388,4.0391,4.0411,4.041,4.0425,4.0424,4.0452,4.0441,4.0441,4.0441,4.0441,0,3.9694,3.9734,3.9806,3.9838,3.9886,3.9935,3.9981,4.0019,4.0069,4.0111,4.0148,4.0186,4.0243,4.0289,4.0325,4.038,4.0393,4.0416,4.0425,4.0413,4.0411,4.0434,4.0434,4.0442,4.0442,4.0441,4.0441,0,3.9686,3.9735,3.9795,3.9868,3.9887,3.9919,3.9982,4.0016,4.0055,4.0107,4.0122,4.0184,4.024,4.029,4.0364,4.0388,4.0445,4.0455,4.0426,4.0431,4.0449,4.0447,4.0494,4.0504,4.0484,4.0484,4.0484,0,3.9696,3.9728,3.9805,3.9836,3.9871,3.9919,3.9955,4.0005,4.0041,4.011,4.0136,4.0195,4.0245,4.0333,4.0385,4.0443,4.0456,4.0469,4.0465,4.0453,4.0459,4.0457,4.0462,4.0469,4.0469,4.0468,4.0468,0,3.971,3.9733,3.9783,3.9842,3.9883,3.9932,3.9982,4.0005,4.0065,4.0104,4.0162,4.0201,4.0278,4.0337,4.0401,4.0438,4.0464,4.0469,4.0478,4.0466,4.0449,4.0461,4.0427,4.0468,4.0468,4.0468,4.0468,4.0468,3.9713,3.9744,3.9804,3.9859,3.9902,3.9949,3.9985,4.003,4.0079,4.0146,4.0173,4.0234,4.0292,4.0381,4.0418,4.0467,4.0472,4.0482,4.0486,4.0488,4.0487,4.044,4.0479,4.0479,4.0479,4.0479,4.0479,0,3.973,3.9771,3.9821,3.9891,3.9934,3.9955,4.0013,4.0048,4.0101,4.0154,4.0203,4.0272,4.033,4.0387,4.0449,4.0477,4.0491,4.0492,4.0491,4.0499,4.0478,4.0466,4.048,4.048,4.048,4.048,4.048,4.048,3.9744,3.98,3.9831,3.991,3.9951,4.0011,4.0042,4.0086,4.0129,4.0204,4.0253,4.029,4.0346,4.0412,4.0467,4.0483,4.0505,4.0503,4.0522,4.0501,4.05,4.05,4.0489,4.0507,4.0507,4.0539,4.0539,4.0539]}]]